EI4HQ Weather Reports


Display with metric or nautical units.
time (UTC)temp
F
wind
direction
speed
MPH
gust
MPH
rain 1hr
in
rain 24hr
in
rain mn
in
humidity
%
barometer
mb
20260510180003 58 28 6.0 14.0 0.00 0.00 0.00 48 1018.7
20260510175403 58 16 6.0 15.0 0.00 0.00 0.00 47 1018.7
20260510174503 58 12 4.0 11.0 0.00 0.00 0.00 46 1018.9
20260510173603 58 11 7.0 14.0 0.00 0.00 0.00 47 1018.8
20260510172703 58 19 5.0 14.0 0.00 0.00 0.00 47 1018.9
20260510171803 57 8 6.0 11.0 0.00 0.00 0.00 45 1019.0
20260510170903 57 12 7.0 14.0 0.00 0.00 0.00 47 1019.0
20260510170003 58 12 8.0 14.0 0.00 0.00 0.00 48 1019.0
20260510165403 58 14 7.0 16.0 0.00 0.00 0.00 46 1018.9
20260510164503 58 6 6.0 12.0 0.00 0.00 0.00 47 1019.2
20260510163603 58 20 8.0 16.0 0.00 0.00 0.00 47 1019.1
20260510162703 58 10 7.0 16.0 0.00 0.00 0.00 48 1019.2
20260510161803 58 16 8.0 19.0 0.00 0.00 0.00 46 1019.2
20260510160903 58 15 9.0 19.0 0.00 0.00 0.00 45 1019.4
20260510160003 58 17 9.0 19.0 0.00 0.00 0.00 46 1019.6
20260510155403 58 12 9.0 17.0 0.00 0.00 0.00 45 1019.7
20260510154503 58 5 9.0 18.0 0.00 0.00 0.00 46 1019.7
20260510153603 59 356 9.0 17.0 0.00 0.00 0.00 48 1019.8
20260510152703 58 1 11.0 21.0 0.00 0.00 0.00 46 1019.8
20260510151803 58 17 8.0 17.0 0.00 0.00 0.00 47 1019.8
20260510150903 58 1 9.0 23.0 0.00 0.00 0.00 47 1019.8
20260510150003 58 2 7.0 23.0 0.00 0.00 0.00 50 1019.8
20260510145403 58 12 7.0 14.0 0.00 0.00 0.00 49 1019.8
20260510144503 58 16 9.0 19.0 0.00 0.00 0.00 45 1019.8
20260510143603 58 4 10.0 19.0 0.00 0.00 0.00 49 1019.9
20260510142703 58 14 8.0 19.0 0.00 0.00 0.00 50 1020.0
20260510141803 58 5 9.0 21.0 0.00 0.00 0.00 51 1020.2
20260510140903 58 6 9.0 18.0 0.00 0.00 0.00 51 1020.2
20260510140003 58 360 9.0 21.0 0.00 0.00 0.00 51 1020.1
20260510135403 58 9 8.0 16.0 0.00 0.00 0.00 51 1020.2
20260510134503 58 2 8.0 19.0 0.00 0.00 0.00 52 1020.2
20260510133603 58 23 9.0 17.0 0.00 0.00 0.00 49 1020.4
20260510132703 58 12 9.0 19.0 0.00 0.00 0.00 50 1020.4
20260510131803 58 3 9.0 18.0 0.00 0.00 0.00 52 1020.4
20260510130903 58 2 10.0 21.0 0.00 0.00 0.00 51 1020.4
20260510130003 58 12 8.0 19.0 0.00 0.00 0.00 52 1020.7
20260510125403 58 9 9.0 19.0 0.00 0.00 0.00 52 1020.6
20260510124518 58 11 8.0 16.0 0.00 0.00 0.00 52 1020.8
20260510123603 57 8 11.0 19.0 0.00 0.00 0.00 52 1020.8
20260510122703 58 358 11.0 19.0 0.00 0.00 0.00 53 1020.9
20260510121803 58 7 9.0 19.0 0.00 0.00 0.00 54 1021.0
20260510120903 57 18 8.0 18.0 0.00 0.00 0.00 54 1021.0
20260510120003 57 17 8.0 20.0 0.00 0.00 0.00 53 1021.2
20260510115403 57 22 8.0 23.0 0.00 0.00 0.00 55 1021.1
20260510114503 56 7 10.0 21.0 0.00 0.00 0.00 55 1021.1
20260510113603 57 360 11.0 19.0 0.00 0.00 0.00 57 1021.1
20260510112703 56 2 12.0 22.0 0.00 0.00 0.00 56 1021.2
20260510111803 56 2 10.0 19.0 0.00 0.00 0.00 57 1021.2
20260510110903 56 7 10.0 19.0 0.00 0.00 0.00 56 1021.3
20260510110003 56 1 10.0 20.0 0.00 0.00 0.00 60 1021.3
20260510105403 55 3 10.0 20.0 0.00 0.00 0.00 59 1021.4
20260510104503 55 6 10.0 21.0 0.00 0.00 0.00 60 1021.4
20260510103603 55 7 10.0 21.0 0.00 0.00 0.00 61 1021.5
20260510102703 54 6 11.0 20.0 0.00 0.00 0.00 62 1021.6
20260510101803 54 13 9.0 19.0 0.00 0.00 0.00 61 1021.6
20260510100903 54 7 8.0 15.0 0.00 0.00 0.00 65 1021.7
20260510100003 54 4 8.0 17.0 0.00 0.00 0.00 64 1021.7
20260510095403 54 6 8.0 15.0 0.00 0.00 0.00 65 1021.8
20260510094503 53 1 9.0 17.0 0.00 0.00 0.00 68 1021.8
20260510093603 52 2 9.0 17.0 0.00 0.00 0.00 68 1021.9
20260510092703 52 2 9.0 17.0 0.00 0.00 0.00 67 1022.0
20260510091803 52 3 9.0 19.0 0.00 0.00 0.00 68 1022.1
20260510090903 51 356 10.0 19.0 0.00 0.00 0.00 68 1022.1
20260510090003 51 356 9.0 17.0 0.00 0.00 0.00 68 1022.3
20260510085403 51 359 8.0 17.0 0.00 0.00 0.00 69 1022.3
20260510084503 50 358 9.0 20.0 0.00 0.00 0.00 69 1022.4
20260510083603 49 358 8.0 16.0 0.00 0.00 0.00 70 1022.5
20260510082703 49 356 7.0 13.0 0.00 0.00 0.00 71 1022.4
20260510081803 48 360 9.0 16.0 0.00 0.00 0.00 71 1022.3
20260510080903 47 1 8.0 14.0 0.00 0.00 0.00 72 1022.4
20260510080003 47 357 9.0 17.0 0.00 0.00 0.00 72 1022.3
20260510075403 46 3 9.0 16.0 0.00 0.00 0.00 73 1022.3
20260510074503 46 360 9.0 16.0 0.00 0.00 0.00 73 1022.3
20260510073603 46 356 9.0 20.0 0.00 0.00 0.00 73 1022.3
20260510072703 45 2 9.0 17.0 0.00 0.00 0.00 74 1022.2
20260510071803 45 360 9.0 18.0 0.00 0.00 0.00 74 1022.2
20260510070903 44 356 10.0 20.0 0.00 0.00 0.00 75 1022.1
20260510070003 44 352 12.0 20.0 0.00 0.00 0.00 75 1022.1
20260510065403 44 355 12.0 20.0 0.00 0.00 0.00 75 1022.0
20260510064503 43 354 13.0 22.0 0.00 0.00 0.00 75 1021.9
20260510063603 43 354 13.0 23.0 0.00 0.00 0.00 76 1021.9
20260510062703 42 353 11.0 20.0 0.00 0.00 0.00 77 1021.8
20260510061803 42 351 11.0 20.0 0.00 0.00 0.00 77 1021.8
20260510060903 42 347 12.0 21.0 0.00 0.00 0.00 77 1021.7
20260510060003 42 349 12.0 19.0 0.00 0.00 0.00 77 1021.7
20260510055403 41 350 11.0 19.0 0.00 0.00 0.00 77 1021.7
20260510054503 41 353 12.0 20.0 0.00 0.00 0.00 77 1021.7
20260510053603 41 352 12.0 20.0 0.00 0.00 0.00 77 1021.7
20260510052703 41 353 13.0 22.0 0.00 0.00 0.00 77 1021.7
20260510051803 41 354 13.0 22.0 0.00 0.00 0.00 77 1021.8
20260510050903 41 355 12.0 20.0 0.00 0.00 0.00 77 1021.7
20260510050003 41 353 11.0 19.0 0.00 0.00 0.00 76 1021.8
20260510045403 41 352 12.0 21.0 0.00 0.00 0.00 76 1021.8
20260510044503 41 350 13.0 23.0 0.00 0.00 0.00 76 1021.7
20260510043603 41 349 14.0 22.0 0.00 0.00 0.00 75 1021.7
20260510042703 41 350 13.0 23.0 0.00 0.00 0.00 75 1021.8
20260510041803 41 352 12.0 22.0 0.00 0.00 0.00 75 1021.9
20260510040903 41 350 11.0 17.0 0.00 0.00 0.00 75 1021.8
20260510040003 41 350 10.0 16.0 0.00 0.00 0.00 74 1022.1
20260510035403 41 352 10.0 20.0 0.00 0.00 0.00 74 1022.0
20260510034503 41 349 10.0 18.0 0.00 0.00 0.00 74 1022.2
20260510033603 42 348 12.0 19.0 0.00 0.00 0.00 73 1022.1
20260510032703 42 348 11.0 19.0 0.00 0.00 0.00 73 1022.1
20260510031803 42 353 9.0 14.0 0.00 0.00 0.00 73 1022.2
20260510030903 42 352 9.0 19.0 0.00 0.00 0.00 73 1022.2
20260510030003 42 353 9.0 19.0 0.00 0.00 0.00 73 1022.3
20260510025403 42 355 9.0 19.0 0.00 0.00 0.00 72 1022.4
20260510024503 42 356 8.0 15.0 0.00 0.00 0.00 72 1022.5
20260510023603 42 352 10.0 18.0 0.00 0.00 0.00 72 1022.5
20260510022703 43 353 11.0 20.0 0.00 0.00 0.00 72 1022.5
20260510021803 43 352 11.0 20.0 0.00 0.00 0.00 71 1022.5
20260510020903 43 350 13.0 21.0 0.00 0.00 0.00 71 1022.5
20260510020003 44 358 11.0 19.0 0.00 0.00 0.00 71 1022.6
20260510015403 44 359 11.0 19.0 0.00 0.00 0.00 71 1022.5
20260510014503 44 357 11.0 19.0 0.00 0.00 0.00 70 1022.6
20260510013603 44 355 11.0 20.0 0.00 0.00 0.00 70 1022.6
20260510012703 44 358 10.0 18.0 0.00 0.00 0.00 69 1022.7
20260510011803 44 356 9.0 18.0 0.00 0.00 0.00 69 1022.8
20260510010903 44 358 9.0 16.0 0.00 0.00 0.00 68 1022.9
20260510010003 44 357 9.0 16.0 0.00 0.00 0.00 68 1022.9
20260510005403 45 355 10.0 16.0 0.00 0.00 0.00 68 1022.9
20260510004503 45 355 9.0 16.0 0.00 0.00 0.00 68 1023.0
20260510003603 45 356 7.0 16.0 0.00 0.00 0.00 68 1023.0
20260510002703 45 356 8.0 13.0 0.00 0.00 0.00 67 1023.0
20260510001803 46 359 8.0 14.0 0.00 0.00 0.00 67 1022.9
20260510000903 46 358 7.0 14.0 0.00 0.00 0.00 67 1023.0
20260510000003 46 358 7.0 14.0 0.00 0.00 0.00 67 1023.0
20260509235403 46 358 7.0 14.0 0.00 0.00 0.00 67 1023.0
20260509234503 47 359 7.0 14.0 0.00 0.00 0.00 66 1022.9
20260509233603 47 1 7.0 14.0 0.00 0.00 0.00 66 1023.0
20260509232703 47 359 7.0 13.0 0.00 0.00 0.00 66 1022.9
20260509231803 48 355 8.0 16.0 0.00 0.00 0.00 66 1022.9
20260509230903 48 357 8.0 16.0 0.00 0.00 0.00 66 1022.8
20260509230003 48 355 8.0 18.0 0.00 0.00 0.00 66 1022.7
20260509225403 48 356 8.0 13.0 0.00 0.00 0.00 65 1022.7
20260509224503 48 358 6.0 13.0 0.00 0.00 0.00 66 1022.7
20260509223603 49 4 6.0 11.0 0.00 0.00 0.00 66 1022.7
20260509222703 49 3 6.0 10.0 0.00 0.00 0.00 65 1022.7
20260509221803 49 4 6.0 11.0 0.00 0.00 0.00 65 1022.5
20260509220903 50 4 6.0 11.0 0.00 0.00 0.00 65 1022.6
20260509220003 50 2 7.0 13.0 0.00 0.00 0.00 64 1022.5
20260509215403 50 4 7.0 13.0 0.00 0.00 0.00 64 1022.5
20260509214503 50 5 6.0 14.0 0.00 0.00 0.00 64 1022.4
20260509213603 50 4 6.0 10.0 0.00 0.00 0.00 65 1022.5
20260509212703 51 3 6.0 12.0 0.00 0.00 0.00 65 1022.4
20260509211803 51 1 5.0 10.0 0.00 0.00 0.00 65 1022.4
20260509210903 51 3 5.0 8.0 0.00 0.00 0.00 65 1022.3
20260509210003 52 3 6.0 11.0 0.00 0.00 0.00 64 1022.2
20260509205403 52 359 6.0 9.0 0.00 0.00 0.00 64 1022.1
20260509204503 52 360 6.0 9.0 0.00 0.00 0.00 63 1021.9
20260509203603 53 2 5.0 11.0 0.00 0.00 0.00 61 1021.8
20260509202703 54 4 6.0 10.0 0.00 0.00 0.00 60 1021.7
20260509201803 54 7 5.0 9.0 0.00 0.00 0.00 60 1021.6
20260509200903 54 11 6.0 12.0 0.00 0.00 0.00 59 1021.6
20260509200003 55 6 5.0 12.0 0.00 0.00 0.00 59 1021.5
20260509195403 55 9 6.0 10.0 0.00 0.00 0.00 58 1021.4
20260509194503 56 11 5.0 9.0 0.00 0.00 0.00 58 1021.4
20260509193603 56 14 5.0 10.0 0.00 0.00 0.00 57 1021.3
20260509192703 56 23 6.0 13.0 0.00 0.00 0.00 57 1021.2
20260509191803 57 31 6.0 16.0 0.00 0.00 0.00 56 1021.1
20260509190903 57 24 5.0 14.0 0.00 0.00 0.00 57 1021.1
20260509190003 57 27 6.0 12.0 0.00 0.00 0.00 56 1021.0
20260509185403 57 26 6.0 13.0 0.00 0.00 0.00 56 1020.9
20260509184514 57 21 6.0 13.0 0.00 0.00 0.00 56 1020.9
20260509183603 57 19 7.0 15.0 0.00 0.00 0.00 55 1020.9
20260509182703 57 15 7.0 16.0 0.00 0.00 0.00 55 1020.8
20260509181803 57 16 7.0 15.0 0.00 0.00 0.00 55 1020.8
20260509180903 57 13 8.0 15.0 0.00 0.00 0.00 55 1020.6